| time (UTC) | temp F | wind direction | speed MPH | gust MPH | rain 1hr in | rain 24hr in | rain mn in | humidity % | barometer mb |
| 20260507211611 | 61 | 0.0 | 0.0 | 0.00 | 0.01 | 0.01 | 81 | 1011.9 | |
| 20260507204559 | 62 | 0.0 | 0.0 | 0.00 | 0.01 | 0.01 | 80 | 1011.9 | |
| 20260507203059 | 62 | 0.0 | 0.0 | 0.00 | 0.01 | 0.01 | 80 | 1012.1 | |
| 20260507201601 | 62 | 0.0 | 0.0 | 0.00 | 0.01 | 0.01 | 78 | 1012.1 | |
| 20260507200107 | 63 | 0.0 | 0.0 | 0.00 | 0.01 | 0.01 | 77 | 1012.1 | |
| 20260507194601 | 63 | 0.0 | 0.0 | 0.00 | 0.01 | 0.01 | 77 | 1012.2 | |
| 20260507193102 | 63 | 0.0 | 0.0 | 0.00 | 0.01 | 0.01 | 76 | 1011.9 | |
| 20260507191600 | 64 | 0.0 | 0.0 | 0.00 | 0.01 | 0.01 | 75 | 1011.9 | |
| 20260507184601 | 64 | 0.0 | 0.0 | 0.00 | 0.01 | 0.01 | 74 | 1011.7 | |
| 20260507183100 | 65 | 0.0 | 0.0 | 0.00 | 0.01 | 0.01 | 73 | 1011.4 | |
| 20260507181600 | 65 | 0.0 | 0.0 | 0.00 | 0.01 | 0.01 | 73 | 1011.6 | |
| 20260507180106 | 65 | 0.0 | 0.0 | 0.00 | 0.01 | 0.01 | 73 | 1011.3 | |
| 20260507174636 | 66 | 0.0 | 0.0 | 0.00 | 0.01 | 0.01 | 74 | 1011.1 | |
| 20260507173100 | 66 | 0.0 | 0.0 | 0.00 | 0.01 | 0.01 | 75 | 1011.0 | |
| 20260507171627 | 67 | 0.0 | 0.0 | 0.00 | 0.01 | 0.01 | 74 | 1011.1 | |
| 20260507164601 | 71 | 0.0 | 0.0 | 0.00 | 0.01 | 0.01 | 72 | 1011.0 | |
| 20260507163059 | 71 | 0.0 | 0.0 | 0.00 | 0.01 | 0.01 | 70 | 1010.9 | |
| 20260507161559 | 71 | 0.0 | 0.0 | 0.00 | 0.01 | 0.01 | 67 | 1011.0 | |
| 20260507160116 | 71 | 0.0 | 0.0 | 0.00 | 0.01 | 0.01 | 61 | 1011.0 | |
| 20260507154600 | 70 | 0.0 | 0.0 | 0.00 | 0.01 | 0.01 | 62 | 1011.2 | |
| 20260507153100 | 70 | 0.0 | 0.0 | 0.00 | 0.01 | 0.01 | 65 | 1011.2 | |
| 20260507151601 | 70 | 0.0 | 0.0 | 0.00 | 0.01 | 0.01 | 65 | 1011.1 | |
| 20260507150058 | 70 | 0.0 | 0.0 | 0.00 | 0.01 | 0.01 | 62 | 1011.0 | |
| 20260507144559 | 70 | 0.0 | 0.0 | 0.00 | 0.01 | 0.01 | 62 | 1011.3 | |
| 20260507143119 | 70 | 0.0 | 0.0 | 0.00 | 0.01 | 0.01 | 61 | 1011.2 | |
| 20260507141633 | 70 | 0.0 | 0.0 | 0.00 | 0.01 | 0.01 | 65 | 1011.2 | |
| 20260507140113 | 70 | 0.0 | 0.0 | 0.00 | 0.01 | 0.01 | 63 | 1011.3 | |
| 20260507134612 | 70 | 0.0 | 0.0 | 0.00 | 0.01 | 0.01 | 63 | 1011.4 | |
| 20260507133106 | 70 | 0.0 | 0.0 | 0.00 | 0.01 | 0.01 | 62 | 1011.3 | |
| 20260507131620 | 70 | 0.0 | 0.0 | 0.00 | 0.01 | 0.01 | 63 | 1011.3 | |
| 20260507130107 | 69 | 0.0 | 0.0 | 0.00 | 0.01 | 0.01 | 62 | 1011.3 | |
| 20260507124602 | 70 | 0.0 | 0.0 | 0.00 | 0.01 | 0.01 | 63 | 1011.2 | |
| 20260507123105 | 70 | 0.0 | 0.0 | 0.00 | 0.01 | 0.01 | 62 | 1011.3 | |
| 20260507121601 | 71 | 0.0 | 0.0 | 0.00 | 0.01 | 0.01 | 60 | 1011.3 | |
| 20260507120059 | 70 | 0.0 | 0.0 | 0.00 | 0.01 | 0.01 | 61 | 1011.4 | |
| 20260507114558 | 70 | 0.0 | 0.0 | 0.00 | 0.01 | 0.01 | 60 | 1011.4 | |
| 20260507113128 | 71 | 0.0 | 0.0 | 0.00 | 0.01 | 0.01 | 60 | 1011.5 | |
| 20260507111559 | 71 | 0.0 | 0.0 | 0.00 | 0.01 | 0.01 | 59 | 1011.5 | |
| 20260507110103 | 71 | 0.0 | 0.0 | 0.00 | 0.01 | 0.01 | 60 | 1011.7 | |
| 20260507104614 | 71 | 0.0 | 0.0 | 0.00 | 0.01 | 0.01 | 60 | 1011.7 | |
| 20260507103100 | 71 | 0.0 | 0.0 | 0.00 | 0.01 | 0.01 | 62 | 1011.7 | |
| 20260507101600 | 69 | 0.0 | 0.0 | 0.00 | 0.01 | 0.01 | 63 | 1011.9 | |
| 20260507100103 | 69 | 0.0 | 0.0 | 0.00 | 0.01 | 0.01 | 66 | 1011.8 | |
| 20260507094606 | 68 | 0.0 | 0.0 | 0.00 | 0.01 | 0.01 | 66 | 1011.8 | |
| 20260507093057 | 67 | 0.0 | 0.0 | 0.00 | 0.01 | 0.01 | 69 | 1011.8 | |
| 20260507091600 | 67 | 0.0 | 0.0 | 0.00 | 0.01 | 0.01 | 71 | 1011.8 | |
| 20260507090056 | 67 | 0.0 | 0.0 | 0.00 | 0.01 | 0.01 | 70 | 1011.8 | |
| 20260507084602 | 67 | 0.0 | 0.0 | 0.00 | 0.01 | 0.01 | 70 | 1011.8 | |
| 20260507083100 | 67 | 0.0 | 0.0 | 0.00 | 0.01 | 0.01 | 75 | 1011.6 | |
| 20260507081558 | 67 | 0.0 | 0.0 | 0.00 | 0.01 | 0.01 | 71 | 1011.3 | |
| 20260507080058 | 66 | 0.0 | 0.0 | 0.00 | 0.01 | 0.01 | 72 | 1011.2 | |
| 20260507074602 | 65 | 0.0 | 0.0 | 0.00 | 0.01 | 0.01 | 70 | 1011.1 | |
| 20260507073109 | 64 | 0.0 | 0.0 | 0.00 | 0.01 | 0.01 | 75 | 1011.1 | |
| 20260507071600 | 63 | 0.0 | 0.0 | 0.00 | 0.01 | 0.01 | 79 | 1011.3 | |
| 20260507070110 | 61 | 0.0 | 0.0 | 0.00 | 0.01 | 0.01 | 82 | 1011.3 | |
| 20260507064606 | 60 | 0.0 | 0.0 | 0.00 | 0.01 | 0.01 | 87 | 1011.2 | |
| 20260507063059 | 60 | 0.0 | 0.0 | 0.00 | 0.01 | 0.01 | 91 | 1011.3 | |
| 20260507061559 | 59 | 0.0 | 0.0 | 0.00 | 0.01 | 0.01 | 92 | 1011.2 | |
| 20260507060059 | 59 | 0.0 | 0.0 | 0.00 | 0.01 | 0.01 | 92 | 1011.2 | |
| 20260507054600 | 59 | 0.0 | 0.0 | 0.00 | 0.02 | 0.01 | 92 | 1011.0 | |
| 20260507053100 | 59 | 0.0 | 0.0 | 0.00 | 0.02 | 0.01 | 92 | 1010.9 | |
| 20260507051608 | 59 | 0.0 | 0.0 | 0.00 | 0.02 | 0.01 | 92 | 1010.8 | |
| 20260507050110 | 59 | 0.0 | 0.0 | 0.00 | 0.02 | 0.01 | 92 | 1010.6 | |
| 20260507044600 | 59 | 0.0 | 0.0 | 0.00 | 0.08 | 0.01 | 92 | 1010.3 | |
| 20260507043100 | 59 | 0.0 | 0.0 | 0.00 | 0.08 | 0.01 | 92 | 1010.0 | |
| 20260507041601 | 58 | 0.0 | 0.0 | 0.00 | 0.08 | 0.01 | 92 | 1010.1 | |
| 20260507040106 | 58 | 0.0 | 0.0 | 0.00 | 0.08 | 0.01 | 92 | 1009.9 | |
| 20260507034605 | 58 | 0.0 | 0.0 | 0.00 | 0.08 | 0.01 | 91 | 1010.0 | |
| 20260507033103 | 58 | 0.0 | 0.0 | 0.00 | 0.08 | 0.01 | 91 | 1009.9 | |
| 20260507031557 | 58 | 0.0 | 0.0 | 0.00 | 0.08 | 0.01 | 90 | 1009.9 | |
| 20260507030056 | 58 | 0.0 | 0.0 | 0.00 | 0.08 | 0.01 | 90 | 1009.9 | |
| 20260507024558 | 59 | 0.0 | 0.0 | 0.00 | 0.08 | 0.01 | 89 | 1009.8 | |
| 20260507023057 | 59 | 0.0 | 0.0 | 0.00 | 0.08 | 0.01 | 89 | 1009.7 | |
| 20260507021606 | 60 | 0.0 | 0.0 | 0.00 | 0.08 | 0.01 | 88 | 1009.7 | |
| 20260507020059 | 60 | 0.0 | 0.0 | 0.01 | 0.08 | 0.01 | 88 | 1009.7 | |
| 20260507014559 | 60 | 0.0 | 0.0 | 0.01 | 0.08 | 0.01 | 87 | 1009.8 | |
| 20260507013100 | 61 | 0.0 | 0.0 | 0.01 | 0.08 | 0.01 | 86 | 1009.7 | |
| 20260507011559 | 62 | 0.0 | 0.0 | 0.01 | 0.08 | 0.01 | 83 | 1009.9 | |
| 20260507010057 | 62 | 0.0 | 0.0 | 0.00 | 0.07 | 0.00 | 81 | 1009.7 | |
| 20260507004559 | 63 | 0.0 | 0.0 | 0.00 | 0.07 | 0.00 | 78 | 1009.8 | |
| 20260507003059 | 63 | 0.0 | 0.0 | 0.00 | 0.07 | 0.00 | 79 | 1009.8 | |
| 20260507001606 | 63 | 0.0 | 0.0 | 0.00 | 0.07 | 0.00 | 77 | 1009.9 | |
| 20260507000101 | 63 | 0.0 | 0.0 | 0.00 | 0.07 | 0.00 | 77 | 1010.0 | |
| 20260506234624 | 63 | 0.0 | 0.0 | 0.00 | 0.07 | 0.00 | 76 | 1009.7 | |
| 20260506233100 | 63 | 0.0 | 0.0 | 0.00 | 0.07 | 0.00 | 76 | 1009.6 | |
| 20260506231557 | 63 | 0.0 | 0.0 | 0.00 | 0.07 | 0.00 | 75 | 1009.5 | |
| 20260506230100 | 64 | 0.0 | 0.0 | 0.00 | 0.07 | 0.00 | 75 | 1009.8 | |
| 20260506224556 | 64 | 0.0 | 0.0 | 0.00 | 0.07 | 0.00 | 75 | 1009.7 | |
| 20260506223102 | 64 | 0.0 | 0.0 | 0.00 | 0.07 | 0.00 | 74 | 1009.7 | |
| 20260506221600 | 64 | 0.0 | 0.0 | 0.00 | 0.07 | 0.00 | 74 | 1009.8 | |
| 20260506220058 | 64 | 0.0 | 0.0 | 0.00 | 0.07 | 0.00 | 73 | 1009.8 | |
| 20260506214557 | 64 | 0.0 | 0.0 | 0.00 | 0.13 | 0.07 | 73 | 1010.0 | |
| 20260506213057 | 64 | 0.0 | 0.0 | 0.00 | 0.13 | 0.07 | 73 | 1009.8 |